Regional Weather Roundup
Issued by NWS Sterling, VA

Home | Current Version | Previous Version | Text Only | Print | Product List | Glossary Off
Versions: 1 2 3 4 5 6 7 8 9 10 11 12 13 14 15 16 17 18 19 20 21 22 23 24 25 26 27 28

000
ASUS41 KLWX 260310
RWRLWX

REGIONAL WEATHER ROUNDUP
NATIONAL WEATHER SERVICE BALTIMORE MD/WASHINGTON DC
1100 PM EDT MON JUL 25 2016

Note: "FAIR" indicates few or no clouds below 12,000 feet
with no significant weather and/or obstructions to visibility.
 TC=TEMPERATURE CELSIUS

 * =Non NWS site. Station does not report precipitation (e.g. rain,
    snow, etc.), thunder, or fog.

DCZ001-MDZ009-015-VAZ040>042-051-053>054-260400-
WASHINGTON METRO

CITY           SKY/WX    TMP DP  RH WIND       PRES   REMARKS
WASHINGTON NAT MOCLDY    88  73  61 S6G20     29.90R THUNDER HX  95
DULLES         FAIR      82  73  74 NW6       29.91F
ANDREWS AFB    TSTM      84  73  70 NW13G28   29.93R HX  91
FT BELVOIR     FAIR      79  75  89 S1        29.89F
COLLEGE PARK*  MOCLDY    81  72  74 E6        29.91S
LEESBURG*      FAIR      82  73  74 NW9       29.93S
MANASSAS*      FAIR      84  75  74 CALM      29.91S HX  92
GAITHERSBURG*  MOCLDY    81  70  69 CALM      29.96S

$$

MDZ006>007-011-014-260400-
BALTIMORE METRO

CITY           SKY/WX    TMP DP  RH WIND       PRES   REMARKS
BWI AIRPORT    CLOUDY    80  69  69 E12       29.92R
MD SCIENCE CTR   N/A     81  69  67 MISG      29.92F
MARTIN STATE   MOCLDY    79  73  83 CALM      29.93F
ANNAPOLIS      LGT RAIN  80  74  81 NE9       29.92R
FORT MEADE*    CLOUDY    73  72  94 E6        29.94F

$$

MDZ012-015-019>023-260400-
MARYLAND EASTERN SHORE

CITY           SKY/WX    TMP DP  RH WIND       PRES   REMARKS
OCEAN CITY     CLOUDY    84  77  79 S5        29.91F HX  94
SALISBURY      MOCLDY    81  76  84 S5        29.90F
BAY BRIDGE AP* TSTM      79  73  83 W3        29.94R
CAMBRIDGE*     CLOUDY    84  77  79 S3        29.88F HX  94
EASTON*        LGT RAIN  80  77  89 E15       29.95S

$$

MDZ017>025-260400-
SOUTHERN MARYLAND

CITY           SKY/WX    TMP DP  RH WIND       PRES   REMARKS
PATUXENT RIVER CLOUDY    87  76  69 SW10      29.88F HX  97
ST INIGOES     CLOUDY    88  78  72 S10       29.88F HX 101
LEONARDTOWN*   CLOUDY    86  73  66 SW5       29.91F HX  93

$$

MDZ003>005-260400-
NORTH CENTRAL MARYLAND

CITY           SKY/WX    TMP DP  RH WIND       PRES   REMARKS
FREDERICK*     MOCLDY    77  73  88 N5        29.95S
HAGERSTOWN APT PTCLDY    82  72  71 CALM      29.94R

$$

MDZ501>502-260400-
WESTERN MARYLAND

CITY           SKY/WX    TMP DP  RH WIND       PRES   REMARKS
OAKLAND*       CLOUDY    68  64  88 SW6       30.09F
CUMBERLAND*    CLOUDY    79  68  69 CALM      30.00F

$$

VAZ025>031-260400-
SHENANDOAH VALLEY

CITY           SKY/WX    TMP DP  RH WIND       PRES   REMARKS
WINCHESTER*    FAIR      82  68  61 W8        29.95S
FRONT ROYAL*   FAIR      77  72  83 CALM      29.94S
LURAY*         FAIR      77  77 100 CALM      29.97S
NEW MARKET*    FAIR     N/A N/A N/A CALM      29.97S
STAUNTON*      FAIR      77  70  79 CALM      30.03S
WAYNESBORO*    FAIR      79  70  73 W7        30.03R

$$

WVZ021-048>050-054>055-260400-
EASTERN WEST VIRGINIA PANHANDLE

CITY           SKY/WX    TMP DP  RH WIND       PRES   REMARKS
MARTINSBURG    FAIR      79  72  79 CALM      29.93S
PETERSBURG*    FAIR      77  72  83 CALM      29.99S

$$

VAZ036>039-050-260400-
CENTRAL FOOTHILLS

CITY           SKY/WX    TMP DP  RH WIND       PRES   REMARKS
CHARLOTTESVILL FAIR      85  73  67 CALM      29.95R HX  91
CULPEPER*      FAIR      80  78  93 N5        29.93S
ORANGE*          N/A     81  77  89 CALM      29.95S
GORDONSVILLE*  FAIR      83  76  78 CALM      29.93S HX  92
WARRENTON*     FAIR      83  71  68 NW6       29.92R

$$

VAZ055>057-260400-
NORTH AND CENTRAL PIEDMONT

CITY           SKY/WX    TMP DP  RH WIND       PRES   REMARKS
FREDERICKSBRG* FAIR      87  77  74 W5        29.89S HX  98
STAFFORD*      FAIR      82  75  79 W3        29.95S

$$

NCZ024-NYZ072-PAZ021-071-VAZ022-071-260400-
OTHER REGIONAL OBSERVATIONS

CITY           SKY/WX    TMP DP  RH WIND       PRES   REMARKS
NEW YORK CITY  CLOUDY    75  73  93 VRB3      29.90S FOG
PHILADELPHIA   CLOUDY    75  72  90 S9        29.92F
PITTSBURGH     PTCLDY    78  70  76 S7        29.98S
ROANOKE        MOCLDY    78  74  87 N3        30.04S
RICHMOND       MOCLDY    86  75  69 SW8       29.93R HX  95
RALEIGH        PTCLDY    85  72  65 SW10      30.00S HX  91

$$

ANZ530>537-260400-
MARINE OBSERVATIONS

STATION/POSITION TIME  TEMP    WIND        PRES
                       AIR SEA DIR/SP/G
                 (UTC) (F)     (DEG/KT/KT) (MB)
THOMAS PT LIGHT  0300   79 83   50/ 20/ 22 1013.9R
BALT KEY BRIDGE  0242           80/ 10/ 12 1012.9
COVE POINT       0242          230/ 10/ 12 1012.4
LEWISETTA        0242          220/ 10/ 12 1012.2
SOLOMONS ISLAND  0236          210/ 12/ 13   N/A
PINEY POINT      0236          230/ 12/ 13   N/A

$$





USA.gov is the U.S. government's official web portal to all federal, state and local government web resources and services.